{"data":{"norad_id":41860,"intl_designator":"2016-069B","name":"GSAT0212 (GALILEO 16)","alt_names":[],"object_type":"PAYLOAD","status":"ACTIVE","operator":null,"country":"ESA","launch_date":"2016-11-17","launch_site_code":"FRGUI","launch_vehicle":null,"mission":null,"orbit_class":"UNKNOWN","rcs_meters":2.7896,"size_class":null,"mass_kg":null,"dimensions":null,"purposes":["earth_obs","nav"],"wikipedia_slug":null,"has_3d_model":false,"image_url":null,"decayed_at":null,"tle_current":{"epoch":"2026-05-24T17:19:41.416032Z","epoch_age_seconds":98977,"freshness":"FRESH","line1":"1 41860U 16069B   26144.72200713  .00000014  00000+0  00000+0 0  9993","line2":"2 41860  55.4828 101.7300 0004738 349.6187  10.3311  1.70473926 59254","mean_motion":1.70473926,"eccentricity":0.0004738,"inclination_deg":55.4828,"raan_deg":101.73,"arg_perigee_deg":349.6187,"mean_anomaly_deg":10.3311,"bstar":0,"rev_number":5925,"period_min":844.70395783576,"perigee_km":23208.166987879,"apogee_km":23236.216259283,"semimajor_km":29600.328623581,"source":"CELESTRAK","updated_at":"2026-05-25T13:38:24.057680Z"}}}